Torna al catalogo

CZ-3B DEB

AttivoGTO
NORAD 40187·DEBRIS·🇨🇳 China

Lanciato Dec 19, 2011 da Xichang Satellite Launch Center

Loading…

TLE

ObsoletoSource: Space-Track

Epoca: Sep 13, 2026, 21:26 UTC

1 40187U 11077L   26256.89318540 -.00000319  00000-0 -14992-2 0  9997
2 40187  26.7113 331.1513 7375163  78.1510 349.0275  1.90952193 96300

Traccia CZ-3B DEB in tempo reale con AllMySat

Download on the App Store